Date String (YYYY-MM-DD hh:mm:ss) UTC,Instrument flags,Ambient pressure (hPa),Sample flow (lpm),Bypass flow (lpm),Sample temperature (°C),Ambient temperature (°C),ASC tube jacket temperature (°C),LED temperature (°C),Box temperature (°C),Sample RH (%),Span deviation,Mass concentration (μg/m³),Mass concentration (μg/m³),Mass concentration (μg/m³)
DateTimeUTC,F1_M11,P_M11,Q1_M11,Q2_M11,T1_M11,T2_M11,T3_M11,T4_M11,T5_M11,U1_M11,ZSPAN_M11,X2_M11,X0_M11,X1_M11
2022-02-06 20:00:00,,0833.6,5.01,0.00,22.6,22.0,00.0,31.6,24.3,10.5,0000.0,0002.00,0002.93,0001.64
2022-02-06 20:01:00,,0833.6,4.99,0.00,22.6,22.0,00.0,31.6,24.3,10.5,0000.0,0002.05,0003.24,0001.67
2022-02-06 20:02:00,,0833.6,5.00,0.00,22.6,22.0,00.0,31.6,24.3,10.3,0000.0,0002.10,0003.90,0001.69
2022-02-06 20:03:00,,0833.6,5.00,0.00,22.6,22.0,00.0,31.6,24.3,10.2,0000.0,0002.16,0005.09,0001.70
2022-02-06 20:04:00,,0833.6,5.02,0.00,22.6,22.0,00.0,31.6,24.4,09.9,0000.0,0002.18,0005.57,0001.70
2022-02-06 20:05:00,,0833.6,4.99,0.00,22.6,22.1,00.0,31.6,24.4,10.1,0000.0,0002.22,0005.66,0001.72
2022-02-06 20:06:00,,0833.6,4.99,0.00,22.6,22.1,00.0,31.6,24.3,09.9,0000.0,0002.24,0005.66,0001.73
2022-02-06 20:07:00,,0833.6,5.00,0.00,22.6,22.1,00.0,31.6,24.3,09.8,0000.0,0002.29,0005.71,0001.73
2022-02-06 20:08:00,,0833.6,5.00,0.00,22.6,22.1,00.0,31.6,24.3,09.9,0000.0,0002.33,0005.79,0001.74
2022-02-06 20:09:00,,0833.5,4.99,0.00,22.6,22.1,00.0,31.6,24.4,09.7,0000.0,0002.35,0005.81,0001.76
2022-02-06 20:10:00,,0833.5,5.00,0.00,22.6,22.1,00.0,31.6,24.4,09.8,0000.0,0002.34,0005.73,0001.78
2022-02-06 20:11:00,,0833.5,5.01,0.00,22.7,22.2,00.0,31.6,24.5,10.1,0000.0,0002.36,0005.80,0001.79
2022-02-06 20:12:00,,0833.5,4.99,0.00,22.7,22.2,00.0,31.6,24.5,10.0,0000.0,0002.34,0005.50,0001.80
2022-02-06 20:13:00,,0833.5,5.00,0.00,22.7,22.2,00.0,31.6,24.4,10.1,0000.0,0002.31,0004.92,0001.80
2022-02-06 20:14:00,,0833.5,5.01,0.00,22.7,22.2,00.0,31.6,24.4,10.2,0000.0,0002.27,0003.81,0001.81
2022-02-06 20:15:00,,0833.5,4.99,0.00,22.7,22.1,00.0,31.6,24.5,09.7,0000.0,0002.24,0003.39,0001.80
2022-02-06 20:16:00,,0833.5,5.01,0.00,22.7,22.1,00.0,31.6,24.4,09.8,0000.0,0002.22,0003.40,0001.79
2022-02-06 20:17:00,,0833.4,5.00,0.00,22.7,22.1,00.0,31.6,24.4,09.7,0000.0,0002.20,0003.75,0001.79
2022-02-06 20:18:00,,0833.4,5.00,0.00,22.7,22.1,00.0,31.6,24.5,10.0,0000.0,0002.13,0003.62,0001.78
2022-02-06 20:19:00,,0833.4,5.01,0.00,22.7,22.2,00.0,31.6,24.5,10.1,0000.0,0002.09,0003.55,0001.78
2022-02-06 20:20:00,,0833.5,4.99,0.00,22.7,22.2,00.0,31.7,24.5,10.0,0000.0,0002.05,0003.46,0001.76
2022-02-06 20:21:00,,0833.4,5.01,0.00,22.7,22.2,00.0,31.7,24.5,09.9,0000.0,0002.05,0003.48,0001.75
2022-02-06 20:22:00,,0833.4,5.01,0.00,22.7,22.2,00.0,31.7,24.5,09.9,0000.0,0002.03,0003.83,0001.75
2022-02-06 20:23:00,,0833.4,4.98,0.00,22.7,22.2,00.0,31.7,24.5,10.0,0000.0,0002.02,0005.18,0001.74
2022-02-06 20:24:00,,0833.3,5.02,0.00,22.7,22.2,00.0,31.7,24.5,10.0,0000.0,0002.02,0005.35,0001.73
2022-02-06 20:25:00,,0833.4,4.99,0.00,22.7,22.2,00.0,31.7,24.5,10.0,0000.0,0002.06,0005.36,0001.72
2022-02-06 20:26:00,,0833.3,5.01,0.00,22.7,22.2,00.0,31.7,24.5,10.0,0000.0,0002.13,0005.50,0001.73
2022-02-06 20:27:00,,0833.3,5.01,0.00,22.7,22.1,00.0,31.7,24.4,09.4,0000.0,0002.13,0006.56,0001.74
2022-02-06 20:28:00,,0833.3,4.99,0.00,22.7,22.1,00.0,31.7,24.4,09.5,0000.0,0002.12,0006.73,0001.73
2022-02-06 20:29:00,,0833.3,5.01,0.00,22.7,22.1,00.0,31.7,24.4,09.6,0000.0,0002.15,0006.94,0001.74
2022-02-06 20:30:00,,0833.3,5.00,0.00,22.7,22.1,00.0,31.7,24.4,09.5,0000.0,0002.17,0007.02,0001.74
2022-02-06 20:31:00,,0833.3,4.99,0.00,22.7,22.1,00.0,31.7,24.4,09.5,0000.0,0002.16,0006.99,0001.74
2022-02-06 20:32:00,,0833.2,5.00,0.00,22.7,22.1,00.0,31.7,24.4,09.8,0000.0,0002.15,0007.01,0001.73
2022-02-06 20:33:00,,0833.2,4.99,0.00,22.7,22.1,00.0,31.7,24.4,09.7,0000.0,0002.19,0006.74,0001.73
2022-02-06 20:34:00,,0833.1,5.00,0.00,22.7,22.1,00.0,31.7,24.5,10.0,0000.0,0002.22,0005.65,0001.73
2022-02-06 20:35:00,,0833.2,5.01,0.00,22.7,22.1,00.0,31.7,24.5,10.1,0000.0,0002.26,0005.52,0001.73
2022-02-06 20:36:00,,0833.2,5.00,0.00,22.7,22.1,00.0,31.7,24.5,09.2,0000.0,0002.21,0005.46,0001.72
2022-02-06 20:37:00,,0833.2,4.99,0.00,22.7,22.2,00.0,31.7,24.5,09.4,0000.0,0002.15,0005.42,0001.71
2022-02-06 20:38:00,,0833.3,5.01,0.00,22.7,22.2,00.0,31.7,24.5,09.2,0000.0,0002.12,0004.24,0001.70
2022-02-06 20:39:00,,0833.2,4.99,0.00,22.7,22.2,00.0,31.7,24.5,09.4,0000.0,0002.13,0003.72,0001.69
2022-02-06 20:40:00,,0833.2,5.00,0.00,22.7,22.2,00.0,31.7,24.5,09.5,0000.0,0002.15,0003.53,0001.69
2022-02-06 20:41:00,,0833.2,5.01,0.00,22.8,22.2,00.0,31.7,24.5,09.5,0000.0,0002.15,0003.51,0001.69
2022-02-06 20:42:00,,0833.2,5.00,0.00,22.8,22.2,00.0,31.7,24.6,09.8,0000.0,0002.19,0003.64,0001.69
2022-02-06 20:43:00,,0833.3,4.99,0.00,22.8,22.2,00.0,31.7,24.5,09.2,0000.0,0002.17,0004.30,0001.68
2022-02-06 20:44:00,,0833.3,5.01,0.00,22.8,22.3,00.0,31.7,24.5,08.8,0000.0,0002.14,0004.87,0001.66
2022-02-06 20:45:00,,0833.2,4.99,0.00,22.8,22.2,00.0,31.7,24.5,09.1,0000.0,0002.13,0004.75,0001.66
2022-02-06 20:46:00,,0833.2,4.99,0.00,22.8,22.2,00.0,31.7,24.6,09.3,0000.0,0002.12,0005.06,0001.68
2022-02-06 20:47:00,,0833.2,5.01,0.00,22.8,22.3,00.0,31.7,24.6,09.5,0000.0,0002.14,0006.44,0001.70
2022-02-06 20:48:00,,0833.2,4.98,0.00,22.8,22.3,00.0,31.7,24.6,09.3,0000.0,0002.14,0006.37,0001.71
2022-02-06 20:49:00,,0833.1,5.00,0.00,22.8,22.3,00.0,31.7,24.6,08.9,0000.0,0002.20,0006.50,0001.72
2022-02-06 20:50:00,,0833.1,5.00,0.00,22.8,22.2,00.0,31.7,24.5,09.1,0000.0,0002.19,0006.55,0001.71
2022-02-06 20:51:00,,0833.2,5.02,0.00,22.8,22.2,00.0,31.7,24.5,09.1,0000.0,0002.18,0006.47,0001.71
2022-02-06 20:52:00,,0833.1,4.99,0.00,22.8,22.2,00.0,31.8,24.5,09.1,0000.0,0002.18,0006.69,0001.71
2022-02-06 20:53:00,,0833.2,5.01,0.00,22.8,22.2,00.0,31.7,24.5,09.0,0000.0,0002.17,0006.91,0001.72
2022-02-06 20:54:00,,0833.1,4.99,0.00,22.7,22.1,00.0,31.7,24.5,09.1,0000.0,0002.19,0006.19,0001.73
2022-02-06 20:55:00,,0833.1,5.01,0.00,22.7,22.1,00.0,31.7,24.5,09.4,0000.0,0002.17,0005.47,0001.74
2022-02-06 20:56:00,,0833.1,5.01,0.00,22.8,22.2,00.0,31.7,24.5,09.6,0000.0,0002.17,0005.50,0001.74
2022-02-06 20:57:00,,0833.1,4.99,0.00,22.8,22.2,00.0,31.7,24.5,09.4,0000.0,0002.17,0005.07,0001.73
2022-02-06 20:58:00,,0833.1,5.00,0.00,22.8,22.2,00.0,31.7,24.5,09.3,0000.0,0002.21,0004.07,0001.72
2022-02-06 20:59:00,,0833.2,5.01,0.00,22.8,22.2,00.0,31.7,24.5,09.6,0000.0,0002.25,0004.31,0001.72
